Location: Baggettsville
(36.4767°N, 86.7303°W)
Time: 11:27:42
(UTC+00:00)

Envisat - Pass Details

Date: 19 September 2021
Orbit: 764 x 766 km, 98.2° (Epoch: 23 October)

Event Time Altitude Azimuth Distance (km) Brightness Sun altitude
Rises 11:02:46 0° 10° (N) 3,237 6.5 -6.8°
Reaches altitude 10° 11:05:05 10° 10° (N) 2,307 5.7 -6.4°
Maximum altitude 11:10:10 78° 285° (WNW) 784 3.0 -5.3°
Drops below altitude 10° 11:15:13 10° 199° (SSW) 2,291 5.2 -4.3°
Sets 11:17:30 0° 198° (SSW) 3,213 6.0 -3.9°
